STARLINK-32177 (60441 NORAD) Tracking and Keplerian Element Data

This shows tracking and keplerian element data for the satellite.

Feedback or suggestion? Click here.




ElementValue
Catalog60441
NameSTARLINK-32177
Epoch Orbit1079
Epoch Day286.8452842
Epoch Year2024
RAAN79.0016
Inclination53.1608
Eccentricity9.49E-05
Argument of Perigee67.5134
Mean Anonmoly292.5967
Mean Motion15.30186832
Decay Rate3.916E-05
L11 60441U 24144S 24286.84528420 .00003916 00000+0 14433-3 0 9991
L22 60441 53.1608 79.0016 0000949 67.5134 292.5967 15.30186832 10795



Live tracking and technical data element details for STARLINK-32177 (NORAD 60441). STARLINK-32177 can be tracked NOW for your location showing map with azimuth and elevation plus other details from your city location.







IsCatalogInMostPopularTable: catalog: 60441, numindb: 7
Update: records affected: 1



GetName: 60441 STARLINK-32177

Hit Count: updated at: Wed, 04 Dec 2024 19:15:39 GMT